User: anonymous
Location: Unspecified
(0.0000°N, 0.0000°E)
Time: 12:20:47
(UTC+02:00)
Language:

Iridium 4 Rocket - Orbit

View from above orbital plane
View from above orbital plane
View from above satellite
View from above satellite

Ground track
Ground track

The orbit data is extracted from the following two-line orbital elements,

1 24797U 97020F   14265.38972081  .00000385  00000-0  77413-4 0  7768
2 24797 086.9011 358.9734 0228744 046.6713 356.7361 14.43191715913830
Epoch (UTC): 22 September 2014 09:21:11
Eccentricity: 0.0228744
inclination: 86.9011°
perigee height: 585 km
apogee height: 911 km
right ascension of ascending node: 358.9734°
argument of perigee: 46.6713°
revolutions per day: 14.43191715
mean anomaly at epoch: 356.7361°
orbit number at epoch: 91383

The dashed part of the orbit path shows where the satellite is in the earth's shadow,  

DLR